Time,TemperatureF,DewpointF,PressureIn,WindDirection,WindDirectionDegrees,WindSpeedMPH,WindSpeedGustMPH,Humidity,HourlyPrecipIn,Conditions,Clouds,dailyrainin,SoftwareType,DateUTC
2013-02-15 03:30:00,18.2,15.8,29.91,NNW,338,7.0,14.0,90,0.00,,,0.00,VWS V14.01,2013-02-15 08:30:00,
2013-02-15 04:27:00,17.2,14.3,29.92,NNW,346,8.0,10.0,88,0.00,,,0.00,VWS V14.01,2013-02-15 09:27:00,
2013-02-15 04:32:00,17.1,13.9,29.92,North,352,9.0,11.0,87,0.00,,,0.00,VWS V14.01,2013-02-15 09:32:00,
2013-02-15 04:37:00,17.0,13.5,29.92,North,351,8.0,9.0,86,0.00,,,0.00,VWS V14.01,2013-02-15 09:37:00,
2013-02-15 04:42:00,16.7,13.2,29.92,North,11,11.0,13.0,86,0.00,,,0.00,VWS V14.01,2013-02-15 09:42:00,
2013-02-15 04:47:00,16.6,12.9,29.92,NNW,340,9.0,12.0,85,0.00,,,0.00,VWS V14.01,2013-02-15 09:47:00,
2013-02-15 04:52:00,16.4,12.7,29.93,NW,311,5.0,8.0,85,0.00,,,0.00,VWS V14.01,2013-02-15 09:52:00,
2013-02-15 04:57:00,16.2,12.5,29.93,NW,321,6.0,10.0,85,0.00,,,0.00,VWS V14.01,2013-02-15 09:57:00,
2013-02-15 05:02:00,16.1,12.4,29.93,North,352,7.0,9.0,85,0.00,,,0.00,VWS V14.01,2013-02-15 10:02:00,
2013-02-15 05:07:00,16.1,12.4,29.93,North,353,8.0,8.0,85,0.00,,OVC040,0.00,VWS V14.01,2013-02-15 10:07:00,
2013-02-15 05:12:00,16.1,12.4,29.94,NNW,340,7.0,8.0,85,0.00,,OVC040,0.00,VWS V14.01,2013-02-15 10:12:00,
2013-02-15 05:17:00,16.2,12.5,29.94,NW,315,6.0,7.0,85,0.00,,OVC040,0.00,VWS V14.01,2013-02-15 10:17:00,
2013-02-15 05:22:00,16.2,12.5,29.94,NNW,328,8.0,10.0,85,0.00,,OVC040,0.00,VWS V14.01,2013-02-15 10:22:00,
2013-02-15 05:27:00,16.1,12.4,29.95,NNW,336,4.0,5.0,85,0.00,,OVC040,0.00,VWS V14.01,2013-02-15 10:27:00,
2013-02-15 05:32:00,16.0,12.3,29.95,NW,323,8.0,8.0,85,0.00,,OVC040,0.00,VWS V14.01,2013-02-15 10:32:00,
2013-02-15 05:37:00,15.9,12.2,29.95,NNW,336,9.0,9.0,85,0.00,,OVC040,0.00,VWS V14.01,2013-02-15 10:37:00,
2013-02-15 05:42:00,15.8,12.1,29.95,NW,315,5.0,9.0,85,0.00,,OVC040,0.00,VWS V14.01,2013-02-15 10:42:00,
2013-02-15 05:47:00,15.7,12.0,29.95,NNW,329,6.0,8.0,85,0.00,,OVC040,0.00,VWS V14.01,2013-02-15 10:47:00,
2013-02-15 05:52:00,15.7,12.0,29.96,NNW,327,4.0,6.0,85,0.00,,OVC040,0.00,VWS V14.01,2013-02-15 10:52:00,
2013-02-15 05:57:00,15.6,12.2,29.96,NW,325,6.0,11.0,86,0.00,,OVC040,0.00,VWS V14.01,2013-02-15 10:57:00,
2013-02-15 06:03:00,15.5,12.1,29.96,NW,321,8.0,9.0,86,0.00,,OVC040,0.00,VWS V14.01,2013-02-15 11:03:00,
2013-02-15 06:08:00,15.5,12.1,29.96,NW,319,8.0,8.0,86,0.00,,BKN032,0.00,VWS V14.01,2013-02-15 11:08:00,
2013-02-15 06:13:00,15.5,12.1,29.97,WNW,301,7.0,10.0,86,0.00,,BKN032,0.00,VWS V14.01,2013-02-15 11:13:00,
2013-02-15 06:18:00,15.5,12.1,29.97,NNW,331,9.0,9.0,86,0.00,,BKN032,0.00,VWS V14.01,2013-02-15 11:18:00,
2013-02-15 06:23:00,15.5,12.1,29.97,NW,311,7.0,7.0,86,0.00,,BKN032,0.00,VWS V14.01,2013-02-15 11:23:00,
2013-02-15 06:28:00,15.4,12.0,29.97,NW,311,10.0,11.0,86,0.00,,BKN032,0.00,VWS V14.01,2013-02-15 11:28:00,
2013-02-15 06:33:00,15.4,12.0,29.97,NNW,346,4.0,7.0,86,0.00,,BKN032,0.00,VWS V14.01,2013-02-15 11:33:00,
2013-02-15 06:38:00,15.4,12.0,29.98,NNW,333,5.0,8.0,86,0.00,,BKN032,0.00,VWS V14.01,2013-02-15 11:38:00,
2013-02-15 06:43:00,15.4,12.0,29.98,NW,316,5.0,7.0,86,0.00,,BKN032,0.00,VWS V14.01,2013-02-15 11:43:00,
2013-02-15 06:48:00,15.3,11.9,29.98,North,357,8.0,11.0,86,0.00,,BKN032,0.00,VWS V14.01,2013-02-15 11:48:00,
2013-02-15 06:53:00,15.2,11.8,29.97,NNW,330,4.0,7.0,86,0.00,,BKN032,0.00,VWS V14.01,2013-02-15 11:53:00,
2013-02-15 06:58:00,15.0,11.6,29.98,North,357,3.0,5.0,86,0.00,,BKN032,0.00,VWS V14.01,2013-02-15 11:58:00,
2013-02-15 07:03:00,15.0,11.6,29.98,North,2,4.0,6.0,86,0.00,,BKN032,0.00,VWS V14.01,2013-02-15 12:03:00,
2013-02-15 07:08:00,14.8,11.4,29.99,North,350,3.0,4.0,86,0.00,,CLR,0.00,VWS V14.01,2013-02-15 12:08:00,
2013-02-15 07:13:00,14.7,11.3,29.99,NNW,338,5.0,5.0,86,0.00,,CLR,0.00,VWS V14.01,2013-02-15 12:13:00,
2013-02-15 07:18:00,14.6,11.2,29.99,North,353,4.0,5.0,86,0.00,,CLR,0.00,VWS V14.01,2013-02-15 12:18:00,
2013-02-15 07:23:00,14.4,11.0,29.99,NNW,344,4.0,5.0,86,0.00,,CLR,0.00,VWS V14.01,2013-02-15 12:23:00,
2013-02-15 07:28:00,14.4,11.0,29.99,North,357,2.0,3.0,86,0.00,,CLR,0.00,VWS V14.01,2013-02-15 12:28:00,
2013-02-15 07:33:00,14.3,10.9,29.99,NNW,342,1.0,3.0,86,0.00,,CLR,0.00,VWS V14.01,2013-02-15 12:33:00,
2013-02-15 07:38:00,14.3,10.9,30.00,NNW,328,2.0,3.0,86,0.00,,CLR,0.00,VWS V14.01,2013-02-15 12:38:00,
2013-02-15 07:43:00,14.1,10.7,30.00,NW,314,1.0,2.0,86,0.00,,CLR,0.00,VWS V14.01,2013-02-15 12:43:00,
2013-02-15 07:48:00,14.0,10.9,30.00,NW,314,1.0,2.0,87,0.00,,CLR,0.00,VWS V14.01,2013-02-15 12:48:00,
2013-02-15 07:53:00,13.8,10.6,30.00,NW,326,2.0,3.0,87,0.00,,CLR,0.00,VWS V14.01,2013-02-15 12:53:00,
2013-02-15 07:58:00,13.7,10.8,30.00,NNW,329,2.0,2.0,88,0.00,,CLR,0.00,VWS V14.01,2013-02-15 12:58:00,
2013-02-15 08:03:00,13.5,10.6,30.01,NNW,333,2.0,4.0,88,0.00,,CLR,0.00,VWS V14.01,2013-02-15 13:03:00,
2013-02-15 08:08:00,13.5,10.6,30.01,NW,319,3.0,3.0,88,0.00,,CLR,0.00,VWS V14.01,2013-02-15 13:08:00,
2013-02-15 08:13:00,13.4,10.5,30.01,North,357,2.0,3.0,88,0.00,,CLR,0.00,VWS V14.01,2013-02-15 13:13:00,
2013-02-15 08:18:00,13.3,10.4,30.01,North,357,2.0,3.0,88,0.00,,CLR,0.00,VWS V14.01,2013-02-15 13:18:00,
2013-02-15 08:23:00,13.3,10.7,30.01,North,357,2.0,2.0,89,0.00,,CLR,0.00,VWS V14.01,2013-02-15 13:23:00,
2013-02-15 08:28:00,13.4,10.8,30.02,North,2,2.0,2.0,89,0.00,,CLR,0.00,VWS V14.01,2013-02-15 13:28:00,
2013-02-15 08:33:00,13.8,11.2,30.02,NNW,341,2.0,2.0,89,0.00,,CLR,0.00,VWS V14.01,2013-02-15 13:33:00,
2013-02-15 08:38:00,14.5,11.6,30.02,NNW,341,1.0,2.0,88,0.00,,CLR,0.00,VWS V14.01,2013-02-15 13:38:00,
2013-02-15 08:43:00,14.9,12.0,30.03,NW,319,2.0,3.0,88,0.00,,CLR,0.00,VWS V14.01,2013-02-15 13:43:00,
2013-02-15 08:48:00,15.5,12.3,30.03,NNW,330,7.0,9.0,87,0.00,,CLR,0.00,VWS V14.01,2013-02-15 13:48:00,
2013-02-15 08:53:00,15.9,12.5,30.03,North,357,3.0,7.0,86,0.00,,CLR,0.00,VWS V14.01,2013-02-15 13:53:00,
2013-02-15 08:58:00,16.1,12.4,30.03,NNE,19,3.0,3.0,85,0.00,,CLR,0.00,VWS V14.01,2013-02-15 13:58:00,
2013-02-15 09:03:00,16.3,12.6,30.04,North,357,3.0,5.0,85,0.00,,CLR,0.00,VWS V14.01,2013-02-15 14:03:00,
2013-02-15 09:08:00,16.6,12.6,30.04,NNW,339,3.0,6.0,84,0.00,,BKN035,0.00,VWS V14.01,2013-02-15 14:08:00,
2013-02-15 09:13:00,16.7,12.7,30.03,NNW,329,3.0,4.0,84,0.00,,BKN035,0.00,VWS V14.01,2013-02-15 14:13:00,
2013-02-15 09:18:00,17.0,12.7,30.03,NW,322,6.0,6.0,83,0.00,,BKN035,0.00,VWS V14.01,2013-02-15 14:18:00,
2013-02-15 09:23:00,17.1,12.8,30.03,NNW,329,5.0,6.0,83,0.00,,BKN035,0.00,VWS V14.01,2013-02-15 14:23:00,
2013-02-15 09:28:00,17.2,12.9,30.03,NW,316,6.0,7.0,83,0.00,,BKN035,0.00,VWS V14.01,2013-02-15 14:28:00,
2013-02-15 09:33:00,17.2,12.9,30.03,NNE,15,6.0,7.0,83,0.00,,BKN035,0.00,VWS V14.01,2013-02-15 14:33:00,
2013-02-15 09:38:00,17.2,12.9,30.03,WNW,298,6.0,6.0,83,0.00,,BKN035,0.00,VWS V14.01,2013-02-15 14:38:00,
2013-02-15 09:43:00,17.3,13.0,30.04,NNW,330,6.0,9.0,83,0.00,,BKN035,0.00,VWS V14.01,2013-02-15 14:43:00,
2013-02-15 09:48:00,17.5,13.2,30.04,NNW,344,6.0,7.0,83,0.00,,BKN035,0.00,VWS V14.01,2013-02-15 14:48:00,
2013-02-15 09:53:00,17.9,13.4,30.04,North,349,4.0,5.0,82,0.00,,BKN035,0.00,VWS V14.01,2013-02-15 14:53:00,
2013-02-15 09:58:00,18.1,13.8,30.04,North,357,6.0,6.0,83,0.00,,BKN035,0.00,VWS V14.01,2013-02-15 14:58:00,
2013-02-15 10:03:00,18.3,13.7,30.04,WNW,293,4.0,4.0,82,0.00,,BKN035,0.00,VWS V14.01,2013-02-15 15:03:00,
2013-02-15 10:08:00,18.5,13.9,30.04,NW,322,4.0,7.0,82,0.00,,OVC039,0.00,VWS V14.01,2013-02-15 15:08:00,
2013-02-15 10:13:00,18.4,13.8,30.05,NNW,346,5.0,6.0,82,0.00,,OVC039,0.00,VWS V14.01,2013-02-15 15:13:00,
2013-02-15 10:18:00,18.4,13.8,30.05,NNW,341,8.0,10.0,82,0.00,,OVC039,0.00,VWS V14.01,2013-02-15 15:18:00,
2013-02-15 10:23:00,18.4,13.8,30.05,NNW,340,7.0,8.0,82,0.00,,OVC039,0.00,VWS V14.01,2013-02-15 15:23:00,
2013-02-15 10:28:00,18.6,14.3,30.05,North,2,4.0,9.0,83,0.00,,OVC039,0.00,VWS V14.01,2013-02-15 15:28:00,
2013-02-15 10:33:00,18.6,14.0,30.05,NNW,335,5.0,6.0,82,0.00,,OVC039,0.00,VWS V14.01,2013-02-15 15:33:00,
2013-02-15 10:38:00,18.5,13.6,30.05,NNE,14,3.0,5.0,81,0.00,,OVC039,0.00,VWS V14.01,2013-02-15 15:38:00,
2013-02-15 10:43:00,18.6,14.0,30.05,NNW,341,3.0,5.0,82,0.00,,OVC039,0.00,VWS V14.01,2013-02-15 15:43:00,
2013-02-15 10:48:00,18.8,13.9,30.05,NNW,340,6.0,6.0,81,0.00,,OVC039,0.00,VWS V14.01,2013-02-15 15:48:00,
2013-02-15 10:53:00,18.7,13.9,30.05,NW,304,4.0,6.0,81,0.00,,OVC039,0.00,VWS V14.01,2013-02-15 15:53:00,
2013-02-15 10:58:00,18.6,14.0,30.05,North,353,4.0,6.0,82,0.00,,OVC039,0.00,VWS V14.01,2013-02-15 15:58:00,
2013-02-15 11:03:00,18.8,14.2,30.05,NW,307,3.0,7.0,82,0.00,,OVC039,0.00,VWS V14.01,2013-02-15 16:03:00,
2013-02-15 11:08:00,18.7,14.4,30.05,NW,313,3.0,5.0,83,0.00,,OVC039,0.00,VWS V14.01,2013-02-15 16:08:00,
2013-02-15 11:13:00,18.8,14.5,30.06,NNW,341,7.0,7.0,83,0.00,,OVC039,0.00,VWS V14.01,2013-02-15 16:13:00,
2013-02-15 11:18:00,19.2,15.4,30.06,NNW,340,6.0,6.0,85,0.00,,OVC039,0.00,VWS V14.01,2013-02-15 16:18:00,
2013-02-15 11:23:00,19.2,14.9,30.05,NNW,334,3.0,6.0,83,0.00,,,0.00,VWS V14.01,2013-02-15 16:23:00,
2013-02-15 11:28:00,19.4,15.1,30.06,NNW,331,6.0,7.0,83,0.00,,,0.00,VWS V14.01,2013-02-15 16:28:00,
2013-02-15 11:33:00,19.5,15.2,30.06,NW,321,1.0,4.0,83,0.00,,,0.00,VWS V14.01,2013-02-15 16:33:00,
2013-02-15 11:38:00,20.0,15.7,30.06,West,264,4.0,5.0,83,0.00,,,0.00,VWS V14.01,2013-02-15 16:38:00,
2013-02-15 11:43:00,20.6,16.0,30.06,WNW,291,2.0,4.0,82,0.00,,,0.00,VWS V14.01,2013-02-15 16:43:00,
2013-02-15 11:48:00,20.7,15.5,30.06,NNW,337,5.0,8.0,80,0.00,,,0.00,VWS V14.01,2013-02-15 16:48:00,
2013-02-15 11:53:00,20.7,15.2,30.06,WNW,282,4.0,6.0,79,0.00,,,0.00,VWS V14.01,2013-02-15 16:53:00,
2013-02-15 11:58:00,21.0,15.8,30.06,NW,319,4.0,6.0,80,0.00,,,0.00,VWS V14.01,2013-02-15 16:58:00,
2013-02-15 12:03:00,21.0,15.8,30.06,NW,308,6.0,6.0,80,0.00,,,0.00,VWS V14.01,2013-02-15 17:03:00,
2013-02-15 12:08:00,20.9,15.1,30.05,North,349,3.0,6.0,78,0.00,,OVC036,0.00,VWS V14.01,2013-02-15 17:08:00,
2013-02-15 12:13:00,21.0,14.6,30.05,NW,324,2.0,4.0,76,0.00,,OVC036,0.00,VWS V14.01,2013-02-15 17:13:00,
2013-02-15 12:18:00,21.1,14.7,30.05,WNW,295,3.0,5.0,76,0.00,,OVC036,0.00,VWS V14.01,2013-02-15 17:18:00,
2013-02-15 12:23:00,21.2,14.5,30.05,NNW,333,7.0,7.0,75,0.00,,OVC036,0.00,VWS V14.01,2013-02-15 17:23:00,
2013-02-15 12:28:00,21.2,14.8,30.05,NW,315,2.0,3.0,76,0.00,,OVC036,0.00,VWS V14.01,2013-02-15 17:28:00,
2013-02-15 12:33:00,21.3,14.9,30.05,West,281,8.0,10.0,76,0.00,,OVC036,0.00,VWS V14.01,2013-02-15 17:33:00,
2013-02-15 12:38:00,21.4,14.7,30.05,West,278,6.0,7.0,75,0.00,,OVC039,0.00,VWS V14.01,2013-02-15 17:38:00,
2013-02-15 12:43:00,21.6,15.2,30.05,NNW,327,7.0,9.0,76,0.00,,OVC039,0.00,VWS V14.01,2013-02-15 17:43:00,
2013-02-15 12:48:00,21.8,15.4,30.05,NW,307,6.0,9.0,76,0.00,,OVC039,0.00,VWS V14.01,2013-02-15 17:48:00,
2013-02-15 12:53:00,21.7,15.6,30.05,NNW,342,9.0,12.0,77,0.00,,OVC039,0.00,VWS V14.01,2013-02-15 17:53:00,
2013-02-15 12:58:00,21.7,15.3,30.05,NW,319,4.0,9.0,76,0.00,,OVC039,0.00,VWS V14.01,2013-02-15 17:58:00,
2013-02-15 13:03:00,21.5,15.7,30.05,NNW,344,5.0,9.0,78,0.00,,OVC039,0.00,VWS V14.01,2013-02-15 18:03:00,
2013-02-15 13:08:00,21.5,15.7,30.05,NNW,336,3.0,4.0,78,0.00,,OVC032,0.00,VWS V14.01,2013-02-15 18:08:00,
2013-02-15 13:14:00,21.4,16.2,30.05,NW,305,5.0,8.0,80,0.00,,OVC032,0.00,VWS V14.01,2013-02-15 18:14:00,
2013-02-15 13:18:00,21.5,16.0,30.05,West,281,3.0,5.0,79,0.00,,OVC032,0.00,VWS V14.01,2013-02-15 18:18:00,
2013-02-15 13:23:00,21.7,15.3,30.05,WNW,303,5.0,10.0,76,0.00,,OVC032,0.00,VWS V14.01,2013-02-15 18:23:00,
2013-02-15 13:28:00,22.1,14.5,30.05,NW,309,3.0,7.0,72,0.00,,OVC032,0.00,VWS V14.01,2013-02-15 18:28:00,
2013-02-15 13:33:00,22.3,15.0,30.05,NW,318,11.0,11.0,73,0.00,,OVC032,0.00,VWS V14.01,2013-02-15 18:33:00,
2013-02-15 13:38:00,22.0,13.7,30.05,West,269,10.0,12.0,70,0.00,,OVC032,0.00,VWS V14.01,2013-02-15 18:38:00,
2013-02-15 13:43:00,22.0,14.1,30.05,NNW,334,5.0,10.0,71,0.00,,OVC032,0.00,VWS V14.01,2013-02-15 18:43:00,
2013-02-15 13:49:00,22.2,13.9,30.05,NNW,334,6.0,9.0,70,0.00,,OVC032,0.00,VWS V14.01,2013-02-15 18:49:00,
2013-02-15 13:54:00,22.7,15.1,30.05,WSW,242,8.0,9.0,72,0.00,,OVC032,0.00,VWS V14.01,2013-02-15 18:54:00,
2013-02-15 13:59:00,22.5,14.2,30.05,WNW,286,7.0,8.0,70,0.00,,OVC032,0.00,VWS V14.01,2013-02-15 18:59:00,
2013-02-15 14:04:00,22.4,14.1,30.05,WNW,302,6.0,9.0,70,0.00,,OVC032,0.00,VWS V14.01,2013-02-15 19:04:00,
2013-02-15 14:08:00,22.4,14.1,30.05,WNW,291,3.0,9.0,70,0.00,,OVC036,0.00,VWS V14.01,2013-02-15 19:08:00,
2013-02-15 14:13:00,22.5,14.9,30.05,NNW,345,9.0,12.0,72,0.00,,OVC036,0.00,VWS V14.01,2013-02-15 19:13:00,
2013-02-15 14:19:00,22.1,14.5,30.05,NNW,334,4.0,9.0,72,0.00,,OVC036,0.00,VWS V14.01,2013-02-15 19:19:00,
2013-02-15 14:24:00,21.8,15.7,30.05,NW,318,6.0,7.0,77,0.00,,OVC036,0.00,VWS V14.01,2013-02-15 19:24:00,
2013-02-15 14:29:00,21.7,15.6,30.05,NNW,336,7.0,9.0,77,0.00,,OVC036,0.00,VWS V14.01,2013-02-15 19:29:00,
2013-02-15 14:34:00,21.4,16.5,30.05,NNW,347,8.0,8.0,81,0.00,,OVC036,0.00,VWS V14.01,2013-02-15 19:34:00,
2013-02-15 14:39:00,21.6,16.7,30.05,NNW,342,7.0,12.0,81,0.00,,OVC036,0.00,VWS V14.01,2013-02-15 19:39:00,
2013-02-15 14:44:00,22.1,17.5,30.05,NW,324,6.0,8.0,82,0.00,,OVC036,0.00,VWS V14.01,2013-02-15 19:44:00,
2013-02-15 14:49:00,22.1,17.5,30.05,NNW,345,7.0,10.0,82,0.00,,OVC036,0.00,VWS V14.01,2013-02-15 19:49:00,
2013-02-15 14:54:00,21.6,17.0,30.05,WNW,286,8.0,10.0,82,0.00,,OVC036,0.00,VWS V14.01,2013-02-15 19:54:00,
2013-02-15 14:59:00,21.4,16.8,30.05,NW,325,8.0,8.0,82,0.00,,OVC036,0.00,VWS V14.01,2013-02-15 19:59:00,
2013-02-15 15:04:00,21.3,17.0,30.05,NNW,348,7.0,10.0,83,0.00,,OVC036,0.00,VWS V14.01,2013-02-15 20:04:00,
2013-02-15 15:09:00,21.1,16.8,30.05,West,280,9.0,9.0,83,0.00,,,0.00,VWS V14.01,2013-02-15 20:09:00,
2013-02-15 15:14:00,21.1,17.3,30.05,West,273,6.0,6.0,85,0.00,,,0.00,VWS V14.01,2013-02-15 20:14:00,
2013-02-15 15:19:00,21.9,17.0,30.05,NW,313,5.0,11.0,81,0.00,,,0.00,VWS V14.01,2013-02-15 20:19:00,
2013-02-15 15:24:00,22.1,17.2,30.05,NNW,335,5.0,7.0,81,0.00,,,0.00,VWS V14.01,2013-02-15 20:24:00,
2013-02-15 15:29:00,21.7,17.1,30.05,NW,320,7.0,8.0,82,0.00,,,0.00,VWS V14.01,2013-02-15 20:29:00,
2013-02-15 15:34:00,21.5,17.1,30.05,North,350,6.0,8.0,83,0.00,,,0.00,VWS V14.01,2013-02-15 20:34:00,
2013-02-15 15:39:00,21.3,17.0,30.05,NNW,345,4.0,7.0,83,0.00,,,0.00,VWS V14.01,2013-02-15 20:39:00,
2013-02-15 15:44:00,20.8,16.5,30.06,North,352,6.0,10.0,83,0.00,,,0.00,VWS V14.01,2013-02-15 20:44:00,
2013-02-15 15:49:00,20.6,16.3,30.06,NW,313,4.0,9.0,83,0.00,,,0.00,VWS V14.01,2013-02-15 20:49:00,
2013-02-15 15:54:00,20.6,16.3,30.06,NW,306,5.0,7.0,83,0.00,,,0.00,VWS V14.01,2013-02-15 20:54:00,
2013-02-15 15:59:00,20.7,16.9,30.06,NW,311,5.0,6.0,85,0.00,,,0.00,VWS V14.01,2013-02-15 20:59:00,
2013-02-15 16:04:00,20.7,16.9,30.06,NNW,327,4.0,7.0,85,0.00,,,0.00,VWS V14.01,2013-02-15 21:04:00,
2013-02-15 16:09:00,20.7,16.6,30.07,NW,315,4.0,6.0,84,0.00,,OVC046,0.00,VWS V14.01,2013-02-15 21:09:00,
2013-02-15 16:14:00,20.8,17.0,30.07,WNW,293,5.0,7.0,85,0.00,,OVC046,0.00,VWS V14.01,2013-02-15 21:14:00,
2013-02-15 16:19:00,20.6,16.8,30.07,NNW,344,8.0,8.0,85,0.00,,OVC046,0.00,VWS V14.01,2013-02-15 21:19:00,
2013-02-15 16:24:00,20.3,16.5,30.07,NW,317,4.0,12.0,85,0.00,,,0.00,VWS V14.01,2013-02-15 21:24:00,
2013-02-15 16:29:00,19.9,16.1,30.07,NW,313,7.0,10.0,85,0.00,,,0.00,VWS V14.01,2013-02-15 21:29:00,
2013-02-15 16:34:00,19.8,15.8,30.07,NNW,335,8.0,10.0,84,0.00,,,0.00,VWS V14.01,2013-02-15 21:34:00,
2013-02-15 16:39:00,20.0,15.7,30.07,NNW,330,4.0,7.0,83,0.00,,,0.00,VWS V14.01,2013-02-15 21:39:00,
2013-02-15 16:44:00,20.1,15.5,30.07,North,349,9.0,9.0,82,0.00,,,0.00,VWS V14.01,2013-02-15 21:44:00,
2013-02-15 16:54:00,19.9,14.7,30.07,NNW,327,5.0,9.0,80,0.00,,,0.00,VWS V14.01,2013-02-15 21:54:00,
2013-02-15 16:59:00,19.9,15.3,30.08,NNW,333,8.0,12.0,82,0.00,,,0.00,VWS V14.01,2013-02-15 21:59:00,
2013-02-15 17:04:00,19.6,15.6,30.08,NNW,344,12.0,14.0,84,0.00,,,0.00,VWS V14.01,2013-02-15 22:04:00,
2013-02-15 17:09:00,19.5,15.7,30.08,NW,319,3.0,8.0,85,0.00,,,0.00,VWS V14.01,2013-02-15 22:09:00,
2013-02-15 17:14:00,19.3,15.5,30.08,NNW,329,10.0,10.0,85,0.00,,,0.00,VWS V14.01,2013-02-15 22:14:00,
2013-02-15 17:19:00,19.3,15.5,30.09,NW,321,8.0,10.0,85,0.00,,,0.00,VWS V14.01,2013-02-15 22:19:00,
2013-02-15 17:24:00,19.2,15.4,30.09,NW,322,5.0,8.0,85,0.00,,,0.00,VWS V14.01,2013-02-15 22:24:00,
2013-02-15 17:29:00,19.2,14.6,30.09,WNW,299,6.0,9.0,82,0.00,,,0.00,VWS V14.01,2013-02-15 22:29:00,
2013-02-15 17:35:00,19.1,13.7,30.09,NW,319,9.0,9.0,79,0.00,,,0.00,VWS V14.01,2013-02-15 22:35:00,
2013-02-15 17:40:00,19.0,13.0,30.09,NW,318,5.0,10.0,77,0.00,,,0.00,VWS V14.01,2013-02-15 22:40:00,
2013-02-15 17:45:00,19.0,13.0,30.09,NW,304,5.0,8.0,77,0.00,,,0.00,VWS V14.01,2013-02-15 22:45:00,
2013-02-15 17:50:00,18.9,12.9,30.10,NW,311,6.0,9.0,77,0.00,,,0.00,VWS V14.01,2013-02-15 22:50:00,
2013-02-15 17:55:00,18.8,12.8,30.10,NNW,329,7.0,10.0,77,0.00,,,0.00,VWS V14.01,2013-02-15 22:55:00,
2013-02-15 18:00:00,18.8,12.8,30.10,NNW,327,9.0,10.0,77,0.00,,,0.00,VWS V14.01,2013-02-15 23:00:00,
2013-02-15 18:05:00,18.7,12.7,30.10,North,357,7.0,8.0,77,0.00,,,0.00,VWS V14.01,2013-02-15 23:05:00,
2013-02-15 18:10:00,18.6,12.6,30.11,NNW,330,4.0,8.0,77,0.00,,,0.00,VWS V14.01,2013-02-15 23:10:00,
2013-02-15 18:15:00,18.5,12.5,30.11,NNW,327,5.0,13.0,77,0.00,,,0.00,VWS V14.01,2013-02-15 23:15:00,
2013-02-15 18:20:00,18.5,12.2,30.11,NW,319,4.0,7.0,76,0.00,,,0.00,VWS V14.01,2013-02-15 23:20:00,
2013-02-15 18:25:00,18.4,12.1,30.11,North,352,5.0,6.0,76,0.00,,OVC049,0.00,VWS V14.01,2013-02-15 23:25:00,
2013-02-15 18:30:00,18.3,12.3,30.11,NW,326,3.0,5.0,77,0.00,,OVC049,0.00,VWS V14.01,2013-02-15 23:30:00,
2013-02-15 18:35:00,18.2,12.2,30.11,NNW,338,8.0,12.0,77,0.00,,OVC049,0.00,VWS V14.01,2013-02-15 23:35:00,
2013-02-15 18:40:00,18.1,12.4,30.12,NNW,341,8.0,10.0,78,0.00,,OVC049,0.00,VWS V14.01,2013-02-15 23:40:00,
2013-02-15 18:45:00,18.1,12.1,30.12,NNW,348,6.0,10.0,77,0.00,,OVC049,0.00,VWS V14.01,2013-02-15 23:45:00,
2013-02-15 18:50:00,17.9,11.9,30.12,North,349,7.0,8.0,77,0.00,,OVC049,0.00,VWS V14.01,2013-02-15 23:50:00,
2013-02-15 18:55:00,17.7,12.0,30.12,NNW,346,9.0,9.0,78,0.00,,OVC049,0.00,VWS V14.01,2013-02-15 23:55:00,
2013-02-15 19:00:00,17.5,12.1,30.12,NNW,342,5.0,6.0,79,0.00,,OVC049,0.00,VWS V14.01,2013-02-16 00:00:00,
2013-02-15 19:05:00,17.3,11.9,30.13,North,2,8.0,13.0,79,0.00,,OVC049,0.00,VWS V14.01,2013-02-16 00:05:00,
2013-02-15 19:10:00,17.3,11.9,30.13,NNW,329,3.0,6.0,79,0.00,,,0.00,VWS V14.01,2013-02-16 00:10:00,
2013-02-15 19:15:00,17.3,11.9,30.13,NW,326,4.0,9.0,79,0.00,,,0.00,VWS V14.01,2013-02-16 00:15:00,
2013-02-15 19:20:00,17.2,11.8,30.13,NNW,335,6.0,7.0,79,0.00,,,0.00,VWS V14.01,2013-02-16 00:20:00,
2013-02-15 19:25:00,17.1,12.0,30.13,North,350,5.0,7.0,80,0.00,,,0.00,VWS V14.01,2013-02-16 00:25:00,
2013-02-15 19:30:00,17.1,11.7,30.13,NNW,339,10.0,10.0,79,0.00,,,0.00,VWS V14.01,2013-02-16 00:30:00,
2013-02-15 19:35:00,17.0,11.6,30.13,North,352,7.0,13.0,79,0.00,,,0.00,VWS V14.01,2013-02-16 00:35:00,
2013-02-15 19:40:00,17.0,11.3,30.13,NNW,348,5.0,5.0,78,0.00,,,0.00,VWS V14.01,2013-02-16 00:40:00,
2013-02-15 19:45:00,16.8,11.1,30.13,North,2,4.0,6.0,78,0.00,,,0.00,VWS V14.01,2013-02-16 00:45:00,
2013-02-15 19:50:00,16.7,11.3,30.13,NNE,15,4.0,9.0,79,0.00,,,0.00,VWS V14.01,2013-02-16 00:50:00,
2013-02-15 19:55:00,16.6,10.9,30.13,North,357,6.0,8.0,78,0.00,,,0.00,VWS V14.01,2013-02-16 00:55:00,
2013-02-15 20:00:00,16.5,10.6,30.13,North,2,5.0,5.0,77,0.00,,,0.00,VWS V14.01,2013-02-16 01:00:00,
2013-02-15 20:05:00,16.4,10.2,30.13,NNE,26,4.0,5.0,76,0.00,,,0.00,VWS V14.01,2013-02-16 01:05:00,
2013-02-15 20:10:00,16.3,10.1,30.12,NNE,15,7.0,8.0,76,0.00,,OVC049,0.00,VWS V14.01,2013-02-16 01:10:00,
2013-02-15 20:15:00,16.2,9.7,30.12,North,357,3.0,6.0,75,0.00,,OVC049,0.00,VWS V14.01,2013-02-16 01:15:00,
2013-02-15 20:20:00,16.1,9.3,30.12,North,7,3.0,5.0,74,0.00,,OVC049,0.00,VWS V14.01,2013-02-16 01:20:00,
2013-02-15 20:25:00,15.9,9.4,30.13,North,357,3.0,4.0,75,0.00,,OVC049,0.00,VWS V14.01,2013-02-16 01:25:00,
2013-02-15 20:30:00,15.9,9.1,30.13,NNW,331,3.0,4.0,74,0.00,,OVC049,0.00,VWS V14.01,2013-02-16 01:30:00,
2013-02-15 20:35:00,15.8,9.3,30.13,NNW,332,4.0,5.0,75,0.00,,OVC049,0.00,VWS V14.01,2013-02-16 01:35:00,
2013-02-15 20:40:00,15.8,9.3,30.14,NNW,337,3.0,3.0,75,0.00,,OVC049,0.00,VWS V14.01,2013-02-16 01:40:00,
2013-02-15 20:45:00,15.7,9.5,30.13,NW,315,4.0,5.0,76,0.00,,OVC049,0.00,VWS V14.01,2013-02-16 01:45:00,
2013-02-15 20:50:00,15.7,9.5,30.14,NNW,341,4.0,5.0,76,0.00,,OVC049,0.00,VWS V14.01,2013-02-16 01:50:00,
2013-02-15 20:55:00,15.7,9.8,30.14,NNW,329,3.0,6.0,77,0.00,,OVC049,0.00,VWS V14.01,2013-02-16 01:55:00,
2013-02-15 21:00:00,15.5,9.9,30.14,NW,326,7.0,7.0,78,0.00,,OVC049,0.00,VWS V14.01,2013-02-16 02:00:00,
2013-02-15 21:05:00,15.4,9.5,30.14,NNW,342,4.0,6.0,77,0.00,,OVC049,0.00,VWS V14.01,2013-02-16 02:05:00,
2013-02-15 21:10:00,15.3,9.1,30.14,NW,322,3.0,5.0,76,0.00,,OVC060,0.00,VWS V14.01,2013-02-16 02:10:00,
2013-02-15 21:15:00,15.0,9.1,30.14,NNW,346,3.0,4.0,77,0.00,,OVC060,0.00,VWS V14.01,2013-02-16 02:15:00,
2013-02-15 21:20:00,14.8,8.9,30.14,NW,318,4.0,9.0,77,0.00,,OVC060,0.00,VWS V14.01,2013-02-16 02:20:00,
2013-02-15 21:26:00,14.8,8.9,30.14,North,7,7.0,7.0,77,0.00,,OVC060,0.00,VWS V14.01,2013-02-16 02:26:00,
2013-02-15 21:31:00,14.6,9.0,30.14,NNW,348,2.0,6.0,78,0.00,,OVC060,0.00,VWS V14.01,2013-02-16 02:31:00,
2013-02-15 21:36:00,14.6,9.0,30.14,NNW,337,8.0,9.0,78,0.00,,OVC060,0.00,VWS V14.01,2013-02-16 02:36:00,
2013-02-15 21:41:00,14.6,9.0,30.14,NW,317,7.0,7.0,78,0.00,,OVC060,0.00,VWS V14.01,2013-02-16 02:41:00,
2013-02-15 21:46:00,14.6,9.0,30.14,North,351,5.0,8.0,78,0.00,,OVC060,0.00,VWS V14.01,2013-02-16 02:46:00,
2013-02-15 21:51:00,14.6,9.0,30.14,NNW,329,4.0,6.0,78,0.00,,OVC060,0.00,VWS V14.01,2013-02-16 02:51:00,
2013-02-15 21:56:00,14.6,9.0,30.14,WNW,298,5.0,8.0,78,0.00,,OVC060,0.00,VWS V14.01,2013-02-16 02:56:00,
2013-02-15 22:01:00,14.6,9.0,30.14,NNW,327,4.0,4.0,78,0.00,,OVC060,0.00,VWS V14.01,2013-02-16 03:01:00,
2013-02-15 22:06:00,14.5,8.9,30.14,North,350,3.0,3.0,78,0.00,,OVC060,0.00,VWS V14.01,2013-02-16 03:06:00,
2013-02-15 22:11:00,14.5,8.9,30.13,North,351,4.0,4.0,78,0.00,,OVC060,0.00,VWS V14.01,2013-02-16 03:11:00,
2013-02-15 22:16:00,14.5,9.2,30.13,NNW,339,2.0,3.0,79,0.00,,OVC060,0.00,VWS V14.01,2013-02-16 03:16:00,
2013-02-15 22:21:00,14.5,8.9,30.13,NNW,334,1.0,3.0,78,0.00,,OVC060,0.00,VWS V14.01,2013-02-16 03:21:00,
2013-02-15 22:26:00,14.5,9.2,30.13,NW,326,3.0,4.0,79,0.00,,OVC060,0.00,VWS V14.01,2013-02-16 03:26:00,
2013-02-15 22:31:00,14.4,9.4,30.13,NNW,339,1.0,2.0,80,0.00,,OVC060,0.00,VWS V14.01,2013-02-16 03:31:00,
2013-02-15 22:36:00,14.3,9.3,30.12,NNW,342,2.0,3.0,80,0.00,,OVC060,0.00,VWS V14.01,2013-02-16 03:36:00,
2013-02-15 22:41:00,14.3,9.3,30.12,NNW,335,2.0,2.0,80,0.00,,OVC060,0.00,VWS V14.01,2013-02-16 03:41:00,
2013-02-15 22:46:00,14.3,9.3,30.12,North,352,2.0,2.0,80,0.00,,OVC060,0.00,VWS V14.01,2013-02-16 03:46:00,
2013-02-15 22:51:00,14.3,9.0,30.12,North,357,3.0,4.0,79,0.00,,OVC060,0.00,VWS V14.01,2013-02-16 03:51:00,
2013-02-15 22:56:00,14.4,8.8,30.12,North,11,4.0,5.0,78,0.00,,OVC060,0.00,VWS V14.01,2013-02-16 03:56:00,
2013-02-15 23:01:00,14.4,8.8,30.12,North,357,3.0,4.0,78,0.00,,OVC060,0.00,VWS V14.01,2013-02-16 04:01:00,
2013-02-15 23:06:00,14.4,8.5,30.12,NNW,327,2.0,3.0,77,0.00,,OVC060,0.00,VWS V14.01,2013-02-16 04:06:00,
2013-02-15 23:11:00,14.5,8.6,30.12,NW,321,1.0,2.0,77,0.00,,OVC060,0.00,VWS V14.01,2013-02-16 04:11:00,
2013-02-15 23:16:00,14.4,8.5,30.11,NW,308,1.0,3.0,77,0.00,,OVC060,0.00,VWS V14.01,2013-02-16 04:16:00,
2013-02-15 23:21:00,14.4,8.2,30.11,NNW,327,4.0,5.0,76,0.00,,OVC060,0.00,VWS V14.01,2013-02-16 04:21:00,
2013-02-15 23:26:00,14.4,8.5,30.11,NNW,337,3.0,5.0,77,0.00,,OVC060,0.00,VWS V14.01,2013-02-16 04:26:00,
2013-02-15 23:31:00,14.3,8.4,30.11,WNW,298,2.0,3.0,77,0.00,,OVC060,0.00,VWS V14.01,2013-02-16 04:31:00,
2013-02-15 23:36:00,14.3,8.7,30.12,WNW,288,3.0,4.0,78,0.00,,OVC060,0.00,VWS V14.01,2013-02-16 04:36:00,
2013-02-15 23:41:00,14.1,8.5,30.12,NW,317,3.0,4.0,78,0.00,,OVC060,0.00,VWS V14.01,2013-02-16 04:41:00,
2013-02-15 23:46:00,13.9,8.6,30.11,NW,315,2.0,2.0,79,0.00,,OVC060,0.00,VWS V14.01,2013-02-16 04:46:00,
2013-02-15 23:51:00,14.0,8.7,30.11,NW,325,3.0,3.0,79,0.00,,OVC060,0.00,VWS V14.01,2013-02-16 04:51:00,
2013-02-15 23:56:00,14.0,8.7,30.11,NNW,347,4.0,4.0,79,0.00,,OVC060,0.00,VWS V14.01,2013-02-16 04:56:00,